Total_Precipitation_Accumulation
0.13 0.34 0.55 0.63 0.74 0.32 0.07 0.06 0.05 0.05 0.06 0.02 0.02 0.04 0.07 0.12 0.24 0.42 0.18 0.10 0.05 0.02 0.02 0.10 0.20 0.18 0.17 0.23 0.33 0.43 0.47 0.55 0.43 0.34 0.27 0.19 0.14 0.16 0.17 0.13 0.16 0.21 0.16 0.13 0.20 0.32 0.36 0.40 0.42
0.27 0.60 0.69 0.91 0.65 0.13 0.10 0.12 0.13 0.11 0.06 0.04 0.03 0.03 0.04 0.05 0.04 0.09 0.17 0.17 0.05 0.02 0.04 0.12 0.19 0.20 0.23 0.31 0.36 0.44 0.50 0.59 0.50 0.36 0.23 0.13 0.12 0.16 0.18 0.28 0.35 0.25 0.13 0.11 0.18 0.32 0.35 0.34 0.42
0.34 0.59 0.73 0.80 0.34 0.14 0.18 0.21 0.21 0.14 0.06 0.05 0.04 0.03 0.05 0.08 0.08 0.13 0.18 0.13 0.06 0.04 0.10 0.22 0.30 0.27 0.30 0.39 0.48 0.51 0.58 0.60 0.51 0.36 0.18 0.12 0.14 0.19 0.28 0.40 0.34 0.18 0.10 0.10 0.15 0.26 0.30 0.26 0.27
0.38 0.68 0.73 0.49 0.26 0.22 0.25 0.27 0.19 0.14 0.07 0.04 0.03 0.04 0.08 0.09 0.13 0.19 0.21 0.19 0.13 0.11 0.13 0.25 0.37 0.32 0.35 0.47 0.61 0.60 0.62 0.65 0.58 0.39 0.22 0.17 0.18 0.19 0.24 0.33 0.29 0.14 0.07 0.06 0.11 0.21 0.26 0.24 0.23
0.33 0.59 0.68 0.46 0.30 0.30 0.28 0.24 0.15 0.13 0.10 0.07 0.04 0.07 0.16 0.18 0.21 0.26 0.32 0.37 0.33 0.25 0.20 0.25 0.36 0.35 0.40 0.54 0.64 0.66 0.69 0.70 0.65 0.44 0.32 0.27 0.24 0.18 0.22 0.24 0.21 0.09 0.05 0.05 0.09 0.16 0.20 0.20 0.22
0.36 0.59 0.85 0.73 0.50 0.38 0.31 0.24 0.14 0.15 0.12 0.11 0.10 0.14 0.20 0.26 0.33 0.37 0.36 0.41 0.44 0.45 0.38 0.32 0.42 0.47 0.48 0.55 0.61 0.65 0.70 0.73 0.67 0.46 0.37 0.33 0.29 0.24 0.22 0.22 0.17 0.08 0.07 0.06 0.08 0.12 0.15 0.14 0.18
0.39 0.63 0.89 0.75 0.58 0.55 0.43 0.23 0.18 0.16 0.16 0.15 0.16 0.24 0.23 0.26 0.32 0.46 0.51 0.52 0.58 0.58 0.55 0.48 0.47 0.51 0.60 0.68 0.71 0.70 0.72 0.74 0.76 0.59 0.47 0.42 0.33 0.25 0.21 0.18 0.13 0.09 0.07 0.06 0.06 0.07 0.07 0.08 0.14
0.20 0.34 0.60 0.65 0.57 0.55 0.40 0.19 0.14 0.12 0.12 0.10 0.14 0.24 0.30 0.33 0.36 0.46 0.55 0.57 0.58 0.60 0.60 0.56 0.58 0.65 0.63 0.66 0.83 0.89 0.87 0.87 0.89 0.73 0.57 0.49 0.34 0.24 0.21 0.14 0.12 0.10 0.09 0.08 0.07 0.06 0.05 0.06 0.13
0.27 0.36 0.67 0.87 0.69 0.52 0.30 0.18 0.12 0.10 0.10 0.09 0.10 0.18 0.25 0.29 0.37 0.45 0.54 0.56 0.59 0.56 0.56 0.56 0.60 0.71 0.76 0.71 0.80 1.05 1.06 1.06 1.00 0.85 0.71 0.58 0.45 0.35 0.28 0.19 0.20 0.14 0.12 0.14 0.14 0.12 0.08 0.07 0.10
0.44 0.55 0.81 0.83 0.49 0.35 0.25 0.20 0.14 0.12 0.11 0.10 0.13 0.20 0.29 0.36 0.45 0.49 0.52 0.55 0.57 0.59 0.55 0.54 0.53 0.58 0.66 0.72 0.83 0.97 0.95 0.93 0.91 1.05 0.94 0.79 0.70 0.55 0.28 0.25 0.28 0.25 0.21 0.19 0.18 0.17 0.10 0.05 0.04
0.35 0.46 0.46 0.50 0.33 0.21 0.18 0.15 0.14 0.15 0.17 0.14 0.17 0.22 0.30 0.41 0.49 0.53 0.56 0.55 0.59 0.57 0.52 0.47 0.44 0.43 0.49 0.62 0.78 0.87 0.98 1.07 1.02 0.98 0.95 0.90 0.75 0.53 0.35 0.33 0.31 0.27 0.25 0.19 0.17 0.14 0.09 0.06 0.04
0.21 0.23 0.21 0.18 0.15 0.15 0.17 0.14 0.14 0.15 0.17 0.15 0.17 0.22 0.31 0.37 0.45 0.48 0.51 0.51 0.49 0.50 0.52 0.46 0.36 0.36 0.37 0.46 0.54 0.65 0.77 0.89 0.92 0.76 0.72 0.77 0.74 0.60 0.43 0.38 0.34 0.29 0.27 0.24 0.20 0.16 0.11 0.08 0.06
0.22 0.19 0.15 0.17 0.17 0.16 0.15 0.16 0.14 0.13 0.17 0.17 0.21 0.27 0.32 0.39 0.45 0.47 0.44 0.43 0.42 0.47 0.53 0.49 0.41 0.39 0.37 0.41 0.43 0.44 0.63 0.79 0.89 0.89 0.75 0.71 0.70 0.66 0.55 0.41 0.38 0.32 0.29 0.26 0.24 0.19 0.15 0.13 0.09
0.16 0.19 0.22 0.22 0.19 0.16 0.14 0.14 0.13 0.18 0.21 0.19 0.19 0.23 0.29 0.37 0.42 0.44 0.42 0.42 0.41 0.44 0.53 0.53 0.51 0.51 0.46 0.40 0.40 0.42 0.51 0.63 0.71 0.85 0.86 0.79 0.69 0.64 0.62 0.52 0.49 0.46 0.42 0.38 0.30 0.22 0.22 0.18 0.11
0.09 0.14 0.19 0.17 0.17 0.16 0.15 0.14 0.14 0.23 0.24 0.21 0.18 0.19 0.23 0.30 0.34 0.36 0.37 0.37 0.41 0.42 0.44 0.45 0.46 0.54 0.54 0.52 0.50 0.50 0.59 0.61 0.68 0.74 0.75 0.81 0.71 0.62 0.65 0.64 0.61 0.57 0.56 0.51 0.41 0.31 0.28 0.22 0.14
0.12 0.18 0.26 0.20 0.18 0.19 0.20 0.17 0.17 0.25 0.24 0.23 0.22 0.22 0.21 0.24 0.28 0.31 0.34 0.34 0.37 0.36 0.37 0.42 0.41 0.47 0.56 0.61 0.64 0.69 0.71 0.75 0.81 0.78 0.75 0.76 0.70 0.66 0.73 0.72 0.71 0.72 0.59 0.53 0.49 0.43 0.37 0.29 0.20
0.22 0.21 0.24 0.22 0.16 0.18 0.20 0.18 0.19 0.24 0.21 0.20 0.20 0.21 0.21 0.23 0.26 0.29 0.31 0.32 0.33 0.34 0.35 0.39 0.43 0.49 0.54 0.60 0.71 0.81 0.88 0.96 1.10 1.06 1.01 0.95 0.83 0.85 0.91 0.92 0.90 0.88 0.83 0.71 0.57 0.50 0.48 0.45 0.36
0.34 0.15 0.12 0.12 0.14 0.16 0.18 0.18 0.18 0.20 0.18 0.16 0.16 0.15 0.18 0.21 0.25 0.28 0.30 0.32 0.34 0.33 0.35 0.39 0.47 0.54 0.63 0.79 1.01 1.24 1.31 1.48 1.71 1.66 1.51 1.33 1.15 1.10 1.19 1.16 1.10 1.10 1.14 1.09 0.84 0.78 0.69 0.59 0.50
0.15 0.10 0.09 0.10 0.12 0.11 0.12 0.13 0.13 0.13 0.12 0.12 0.12 0.12 0.12 0.13 0.17 0.20 0.22 0.25 0.24 0.23 0.27 0.34 0.40 0.50 0.60 0.82 1.15 1.58 1.80 1.91 1.92 1.94 1.85 1.64 1.42 1.42 1.55 1.51 1.48 1.45 1.38 1.28 1.17 1.20 1.10 0.83 0.63
0.09 0.09 0.08 0.06 0.08 0.07 0.06 0.06 0.06 0.06 0.07 0.08 0.08 0.09 0.09 0.11 0.12 0.11 0.13 0.15 0.14 0.14 0.17 0.26 0.33 0.42 0.56 0.82 1.14 1.49 1.85 1.92 1.93 1.93 1.88 1.76 1.65 1.65 1.68 1.84 1.90 1.85 1.89 1.83 1.59 1.63 1.59 1.25 0.93
0.07 0.10 0.10 0.07 0.05 0.05 0.04 0.04 0.04 0.04 0.05 0.06 0.06 0.07 0.08 0.10 0.11 0.09 0.08 0.09 0.10 0.11 0.12 0.18 0.24 0.38 0.66 1.00 1.32 1.51 1.80 1.92 1.97 1.91 1.91 1.95 1.90 1.80 1.82 1.91 2.04 2.03 2.05 2.08 2.08 1.97 1.98 1.74 1.34
0.07 0.06 0.05 0.05 0.05 0.04 0.04 0.05 0.04 0.06 0.10 0.12 0.13 0.13 0.15 0.17 0.14 0.12 0.09 0.07 0.08 0.09 0.11 0.14 0.20 0.40 0.73 1.08 1.34 1.57 1.92 2.03 1.99 2.02 2.00 2.02 2.05 2.01 2.05 2.05 2.13 2.13 2.11 2.14 2.20 2.11 2.12 2.13 1.75
0.03 0.03 0.03 0.04 0.05 0.04 0.03 0.05 0.05 0.08 0.15 0.21 0.23 0.23 0.23 0.20 0.15 0.12 0.10 0.09 0.10 0.10 0.13 0.20 0.33 0.52 0.77 0.97 1.23 1.58 1.83 1.94 2.10 2.05 2.02 2.02 2.07 2.07 2.09 2.14 2.26 2.24 2.16 2.13 2.30 2.29 2.30 2.19 2.07
0.01 0.02 0.04 0.05 0.07 0.06 0.03 0.07 0.13 0.17 0.19 0.21 0.22 0.23 0.23 0.20 0.16 0.16 0.15 0.15 0.16 0.18 0.24 0.33 0.49 0.64 0.84 1.00 1.20 1.38 1.64 1.79 1.95 2.04 1.97 1.95 1.99 2.07 1.96 1.88 2.00 2.03 2.04 2.04 2.17 2.30 2.38 2.32 2.32
0.01 0.04 0.10 0.13 0.16 0.12 0.07 0.16 0.28 0.23 0.18 0.19 0.20 0.21 0.23 0.24 0.26 0.30 0.31 0.34 0.41 0.44 0.47 0.55 0.65 0.75 0.87 0.96 1.05 1.11 1.28 1.45 1.52 1.67 1.76 1.86 1.86 1.90 1.91 1.80 1.78 1.75 1.70 1.73 1.85 1.91 1.96 2.06 2.19
0.01 0.03 0.10 0.15 0.15 0.15 0.17 0.36 0.41 0.27 0.23 0.22 0.23 0.25 0.29 0.37 0.43 0.53 0.61 0.69 0.76 0.75 0.74 0.80 0.85 0.84 0.82 0.87 0.93 0.96 1.03 1.10 1.16 1.20 1.26 1.42 1.58 1.61 1.66 1.65 1.58 1.58 1.63 1.63 1.69 1.71 1.71 1.70 1.76
0.01 0.03 0.06 0.13 0.12 0.13 0.20 0.43 0.44 0.32 0.31 0.31 0.32 0.33 0.42 0.61 0.71 0.81 0.91 0.92 0.93 0.90 0.85 0.86 0.88 0.86 0.84 0.84 0.84 0.79 0.78 0.84 0.92 0.94 1.01 1.07 1.16 1.18 1.23 1.31 1.35 1.38 1.46 1.51 1.62 1.67 1.67 1.60 1.57
0.03 0.07 0.13 0.26 0.34 0.30 0.31 0.48 0.52 0.44 0.39 0.37 0.41 0.49 0.65 0.91 1.06 1.19 1.27 1.17 1.10 1.09 1.13 1.01 0.92 0.85 0.82 0.82 0.82 0.76 0.71 0.74 0.76 0.76 0.83 0.82 0.83 0.82 0.88 0.99 1.11 1.24 1.36 1.45 1.52 1.55 1.61 1.63 1.59
0.10 0.16 0.24 0.37 0.45 0.57 0.70 0.85 0.68 0.58 0.58 0.65 0.75 0.83 1.00 1.26 1.43 1.52 1.53 1.43 1.23 1.10 1.09 1.03 0.92 0.81 0.71 0.70 0.75 0.74 0.69 0.69 0.71 0.69 0.66 0.61 0.63 0.67 0.76 0.80 0.92 1.03 1.13 1.32 1.49 1.52 1.53 1.53 1.51
0.22 0.37 0.50 0.74 0.74 0.67 0.87 1.09 0.84 0.69 0.71 0.74 0.80 0.92 1.10 1.22 1.30 1.34 1.30 1.29 1.18 1.08 0.99 0.95 0.84 0.71 0.65 0.69 0.71 0.73 0.65 0.60 0.61 0.60 0.60 0.54 0.51 0.54 0.61 0.71 0.85 0.96 1.01 1.04 1.14 1.22 1.23 1.24 1.29